Showing default

COSMOS 2330, 23792

Orbit data source: Space-Track

COSMOS 2330, 23792 is a payload satellite owned by VKS (CIS) in LEO that was launched on Mon, 19 Feb 1996 UTC via a TSIKLON-3 launch vehicle from the Plesetsk Missile And Space Complex (PKMTR). Payload-class satellites include a variety of spacecraft equipped with specific instruments for various scientific and technological missions. These include communications satellites like Starlink; space stations such as the ISS; scientific satellites like the Hubble; Earth observation satellites from companies like Planet Labs, Umbra, and HawkEye 360; GPS; miniature CubeSats for education and research; and military/defense satellites.

Loading next visibility...
Identifier
23792, 1996-009F
Orbit
LEO
Country
Flag of CISCIS
Related business
Manufacturer
NPO PM
Mission
Non-operational Defense Communications
Bus & Motor
STRELA-3, Unknown motor
Mass
225 kg wet, 225 kg dry
Launch date (UTC)
1996-02-19 (30 years ago)
Launch vehicle
TSIKLON-3
Launch site
Plesetsk Missile And Space Complex (PKMTR)
Object type
Payload
Rocket body
Debris
Shape & HBR
Cyl + 1 Ant, 3.5 m
Radar Cross Section
1.583 m², Medium (>0.1 m² and < 1m²)

Expand to show TLE details & history
Last TLE update: 1 day ago

TLE from 1 day ago
0 COSMOS 2330
1 23792U 96009F   25308.91249232  .00000025  00000-0  84671-4 0  9994
2 23792  82.5772 126.6321 0011017 222.1247 137.8998 12.60970438367378
Epoch: 2025-11-04T21:53Z
TLE epoch observation values (Epoch: 2025-11-04T21:53:59.336Z)
Latitude
0.00004°
Longitude
113.74217°
Altitude
1,428.048 km
Speed
7.144 km/s
True Right ascension
08h 26m 31s
True Declination
0° 00' 00"
Sunlit
Object was in daylight at epoch
Visualization orbit readout
Latitude
Unknown
Longitude
Unknown
Altitude
Unknown
Speed
Unknown
Apparent Right ascension
Unknown
Apparent Declination
Unknown
Sunlit
N/A
Visualization observer readout
Local Sidereal Time
17:59:09
Azimuth
Unknown
Elevation
Unknown
Doppler factor
Unknown
Orbital elements
Apogee altitude
1,424.851 km
Perigee altitude
1,407.677 km
Semi-major axis
7,794.401 km
Eccentricity
0.0011
Inclination
82.5772°
RAAN
126.6321°
Arg. of periapsis
222.1247°
True anomaly
137.98435°
Mean anomaly
137.8998°
Eccentric anomaly
137.94208°
Mean motion
3.15405 °/min
Orbital period
114.14 mins
BSTAR
0.000084671
Loading maneuver chart data...
Computing Atmospheric mass density...
Loading historical data...
Loading historical data...
Loading historical data...
Loading historical data...
Loading historical data...
Loading historical data...
Loading historical data...

Documentation

Showing up to 5 results
|